Flag for Gambia Weather past 2 weeks in Banjul, Gambia

Now
73 °F

Clear.


Feels Like: 76 °F
Forecast: N/A
Wind: 6 mph from North

Location: Banjul / Yundum

Current Time: Dec 20, 2014 at 9:54:42 PM

Latest Report: Dec 20, 2014 at 9:00 PM


Visibility: 6 mi

Pressure: 29.92 "Hg

Humidity: 69%

Dew point: 63 °F

Location of BanjulLocation

Historic Weather in Banjul — Graph

°F

Banjul temperature yesterday

Maximum temperature yesterday: 91 °F (at 4:00 PM)
Minimum temperature yesterday: 66 °F (at 4:00 AM)
Average temperature yesterday: 76 °F

Past Weeks' High & Low Weather Summary

 TemperatureHumidityPressure
High97 °F (Dec 6, 4:00 PM)100% (Dec 9, 5:00 AM)32.75 "Hg (Dec 9, 5:00 AM)
Low61 °F (Dec 13, 7:00 AM)12% (Dec 13, 11:00 AM)29.77 "Hg (Dec 8, 4:00 PM)
Average76 °F46%29.89 "Hg
* Reported Dec 5 8:00 PM — Dec 20 8:00 PM, Banjul, Weather by CustomWeather, © 2014

Note: Actual official high and low records may vary slightly from our data, if they occured in-between our weather recording intervals... More about our weather records

Advertising

Banjul weather history for previous 24 hours

 ConditionsComfort  
Time TempWeatherWind HumidityBarometerVisibility
8:00 PM
Dec 20
75 °FClear.6 mph57%29.89 "Hg6 mi
7:00 PM79 °FClear.No wind54%29.89 "Hg6 mi
6:00 PM86 °FClear.No wind38%29.86 "Hg6 mi
5:00 PM90 °FSunny.No wind26%29.86 "Hg6 mi
4:00 PM88 °FSunny.7 mph40%29.86 "Hg6 mi
3:00 PM90 °FSunny.9 mph21%29.89 "Hg6 mi
2:00 PM88 °FClear.14 mph22%29.89 "Hg6 mi
1:00 PM84 °FClear.15 mph25%29.92 "Hg6 mi
12:00 PM82 °FClear.12 mph25%29.95 "Hg6 mi
11:00 AM79 °FClear.14 mph26%29.98 "Hg6 mi
10:00 AM75 °FClear.18 mph25%29.98 "Hg6 mi
9:00 AM70 °FClear.13 mph33%29.95 "Hg6 mi
8:00 AM66 °FClear.12 mph40%29.95 "Hg6 mi
7:00 AM68 °FClear.10 mph40%29.95 "Hg6 mi
6:00 AM68 °FClear.8 mph38%29.92 "Hg6 mi
5:00 AM68 °FClear.10 mph38%29.92 "Hg10 mi
4:00 AM66 °FClear.12 mph46%29.92 "Hg10 mi
3:00 AM68 °FClear.8 mph43%29.92 "Hg10 mi
2:00 AM72 °FClear.8 mph38%29.92 "Hg10 mi
1:00 AM73 °FClear.13 mph31%29.95 "Hg10 mi
12:00 AM68 °FClear.8 mph60%29.95 "Hg10 mi
11:00 PM
Dec 19
70 °FClear.7 mph57%29.95 "Hg10 mi
10:00 PM72 °FClear.9 mph61%29.95 "Hg10 mi
9:00 PM73 °FClear.No wind65%29.92 "Hg10 mi
Weather by CustomWeather, © 2014

See weather overviewHow to use our weather pages